RXI612 OEJN-OERK

Flight info

Callsign RXI612
Flight time N/A
Altitude 39000
Route EGREP T532 ORDEM
Aircraft A35K/H-SDE2E3GHIJ3J4J5LM1ORWXY/LB1D1

Departure

Time 2026-04-28 16:18
Airport King Abdulaziz International Airport (OEJN)

Arrival

Time N/A
Airport King Khalid International Airport (OERK)
Time Latitude Longitude Altitude Speed Heading
2026-04-28 15:44 21.67140 39.16884 39 ft 0 kts 171°
2026-04-28 16:02 21.67148 39.16882 38 ft 4 kts 170°
2026-04-28 16:02 21.67175 39.16877 37 ft 4 kts 167°
2026-04-28 16:02 21.67198 39.16869 36 ft 3 kts 147°
2026-04-28 16:02 21.67210 39.16855 35 ft 3 kts 108°
2026-04-28 16:03 21.67213 39.16840 35 ft 2 kts 96°
2026-04-28 16:03 21.67214 39.16829 35 ft 2 kts 93°
2026-04-28 16:03 21.67215 39.16819 35 ft 0 kts 92°
2026-04-28 16:09 21.67214 39.16823 35 ft 2 kts 92°
2026-04-28 16:09 21.67216 39.16847 35 ft 5 kts 86°
2026-04-28 16:10 21.67246 39.16950 38 ft 10 kts 60°
2026-04-28 16:10 21.67300 39.17002 38 ft 11 kts 13°
2026-04-28 16:10 21.67458 39.16939 38 ft 14 kts 336°
2026-04-28 16:11 21.67649 39.16854 38 ft 16 kts 336°
2026-04-28 16:11 21.67675 39.16684 39 ft 13 kts 250°
2026-04-28 16:12 21.67606 39.16483 39 ft 16 kts 250°
2026-04-28 16:12 21.67564 39.16359 38 ft 19 kts 250°
2026-04-28 16:13 21.67346 39.16306 38 ft 21 kts 160°
2026-04-28 16:13 21.67199 39.16327 39 ft 22 kts 202°
2026-04-28 16:13 21.66889 39.16388 39 ft 25 kts 160°
2026-04-28 16:14 21.66551 39.16520 39 ft 20 kts 160°
2026-04-28 16:14 21.66274 39.16630 39 ft 18 kts 158°
2026-04-28 16:15 21.66165 39.16578 38 ft 0 kts 250°
2026-04-28 16:17 21.66157 39.16507 38 ft 13 kts 287°
2026-04-28 16:17 21.66224 39.16444 38 ft 9 kts 338°
2026-04-28 16:17 21.66290 39.16416 38 ft 18 kts 339°
2026-04-28 16:17 21.66707 39.16253 42 ft 112 kts 340°
2026-04-28 16:18 21.67686 39.15870 212 ft 180 kts 339°
2026-04-28 16:18 21.68954 39.15338 1045 ft 200 kts 338°
2026-04-28 16:18 21.70234 39.14747 2307 ft 193 kts 336°
2026-04-28 16:18 21.71474 39.14244 3030 ft 198 kts 338°
2026-04-28 16:19 21.72853 39.13742 3249 ft 220 kts 338°
2026-04-28 16:19 21.74361 39.13184 3502 ft 238 kts 339°
2026-04-28 16:19 21.75973 39.12568 3816 ft 253 kts 338°
2026-04-28 16:19 21.77667 39.11916 4249 ft 263 kts 336°
2026-04-28 16:20 21.79424 39.11230 4691 ft 273 kts 336°
2026-04-28 16:20 21.81232 39.10522 5206 ft 278 kts 336°
2026-04-28 16:20 21.83061 39.09802 5715 ft 282 kts 336°
2026-04-28 16:20 21.84913 39.09067 5970 ft 283 kts 335°
2026-04-28 16:21 21.86756 39.08338 6013 ft 283 kts 337°
2026-04-28 16:21 21.88607 39.07607 5998 ft 283 kts 336°
2026-04-28 16:21 21.90410 39.06829 5998 ft 283 kts 333°
2026-04-28 16:21 21.92208 39.05984 5998 ft 283 kts 332°
2026-04-28 16:22 21.94005 39.05125 6000 ft 283 kts 333°
2026-04-28 16:22 21.95807 39.04263 5999 ft 282 kts 333°
2026-04-28 16:22 21.97604 39.03403 6015 ft 283 kts 332°
2026-04-28 16:22 21.99398 39.02546 5997 ft 283 kts 333°
2026-04-28 16:23 22.01198 39.01687 6004 ft 282 kts 333°
2026-04-28 16:23 22.02995 39.00830 6001 ft 283 kts 332°
2026-04-28 16:23 22.04790 38.99967 6001 ft 283 kts 333°
2026-04-28 16:23 22.06595 38.99107 6001 ft 284 kts 331°
2026-04-28 16:24 22.08404 38.98239 6002 ft 284 kts 332°
2026-04-28 16:24 22.10203 38.97375 6000 ft 283 kts 332°
2026-04-28 16:24 22.12003 38.96512 6003 ft 282 kts 333°
2026-04-28 16:24 22.13807 38.95733 6001 ft 284 kts 340°
2026-04-28 16:25 22.15776 38.95445 5999 ft 290 kts 360°
2026-04-28 16:25 22.17759 38.95936 6003 ft 297 kts 21°
2026-04-28 16:25 22.19493 38.97157 6002 ft 299 kts 38°
2026-04-28 16:25 22.21045 38.98650 6001 ft 298 kts 41°
2026-04-28 16:26 22.22569 39.00171 6003 ft 299 kts 41°
2026-04-28 16:26 22.24106 39.01695 6004 ft 299 kts 41°
2026-04-28 16:26 22.25637 39.03197 6060 ft 297 kts 41°
2026-04-28 16:26 22.27185 39.04709 6245 ft 304 kts 41°
2026-04-28 16:27 22.28756 39.06264 6825 ft 305 kts 44°
2026-04-28 16:27 22.30023 39.08075 7477 ft 303 kts 63°
2026-04-28 16:27 22.31213 39.12469 8597 ft 308 kts 79°
2026-04-28 16:28 22.31669 39.14691 9258 ft 307 kts 79°
2026-04-28 16:28 22.31988 39.16219 9674 ft 309 kts 79°
2026-04-28 16:28 22.32632 39.19258 10271 ft 318 kts 79°
2026-04-28 16:28 22.33142 39.21639 10536 ft 332 kts 78°
2026-04-28 16:29 22.34046 39.25810 10949 ft 354 kts 78°
2026-04-28 16:29 22.35207 39.31151 11432 ft 377 kts 78°
2026-04-28 16:30 22.35810 39.33934 11753 ft 383 kts 78°
2026-04-28 16:30 22.36423 39.36755 12180 ft 387 kts 78°
2026-04-28 16:30 22.37039 39.39596 12595 ft 391 kts 78°
2026-04-28 16:30 22.37664 39.42484 12946 ft 394 kts 78°
2026-04-28 16:31 22.38288 39.45364 13040 ft 395 kts 78°
2026-04-28 16:31 22.38913 39.48257 13033 ft 396 kts 78°
2026-04-28 16:31 22.39540 39.51156 13045 ft 396 kts 78°
2026-04-28 16:31 22.40167 39.54057 13031 ft 396 kts 78°
2026-04-28 16:32 22.40789 39.56933 13226 ft 399 kts 78°
2026-04-28 16:32 22.42055 39.62800 14112 ft 402 kts 78°
2026-04-28 16:32 22.42694 39.65765 14512 ft 405 kts 78°
2026-04-28 16:33 22.43334 39.68733 14912 ft 406 kts 78°
2026-04-28 16:33 22.43757 39.70701 15200 ft 408 kts 78°
2026-04-28 16:33 22.44620 39.74714 15718 ft 411 kts 78°
2026-04-28 16:33 22.45274 39.77752 16161 ft 413 kts 78°
2026-04-28 16:34 22.46071 39.80703 16522 ft 417 kts 70°
2026-04-28 16:34 22.47363 39.83522 16926 ft 420 kts 58°
2026-04-28 16:34 22.49163 39.86008 17304 ft 421 kts 46°
2026-04-28 16:34 22.51258 39.88243 17691 ft 424 kts 43°
2026-04-28 16:35 22.53453 39.90375 18123 ft 424 kts 40°
2026-04-28 16:35 22.55697 39.92466 18476 ft 427 kts 40°
2026-04-28 16:35 22.57966 39.94562 18763 ft 430 kts 39°
2026-04-28 16:35 22.60251 39.96682 19062 ft 434 kts 40°
2026-04-28 16:36 22.62545 39.98834 19378 ft 437 kts 40°
2026-04-28 16:36 22.64837 40.01004 19679 ft 440 kts 40°
2026-04-28 16:36 22.67143 40.03202 19974 ft 443 kts 40°
2026-04-28 16:36 22.69455 40.05414 20315 ft 444 kts 40°
2026-04-28 16:37 22.71776 40.07640 20609 ft 447 kts 40°
2026-04-28 16:37 22.74082 40.09851 20889 ft 450 kts 40°
2026-04-28 16:37 22.76432 40.12106 21169 ft 453 kts 40°
2026-04-28 16:38 22.81185 40.16667 21750 ft 458 kts 40°
2026-04-28 16:38 22.83578 40.18964 22030 ft 461 kts 39°
2026-04-28 16:38 22.85990 40.21280 22291 ft 464 kts 39°
2026-04-28 16:38 22.88414 40.23609 22561 ft 466 kts 39°
2026-04-28 16:39 22.90841 40.25942 22854 ft 469 kts 39°
2026-04-28 16:39 22.93291 40.28298 23094 ft 472 kts 39°
2026-04-28 16:39 22.95761 40.30674 23323 ft 475 kts 39°
2026-04-28 16:39 22.98237 40.33059 23598 ft 477 kts 39°
2026-04-28 16:40 23.00725 40.35455 23810 ft 479 kts 39°
2026-04-28 16:40 23.03225 40.37864 24023 ft 481 kts 39°
2026-04-28 16:40 23.05728 40.40277 24232 ft 483 kts 39°
2026-04-28 16:40 23.08253 40.42713 24459 ft 485 kts 38°
2026-04-28 16:41 23.10781 40.45153 24630 ft 488 kts 38°
2026-04-28 16:41 23.13291 40.47576 24794 ft 491 kts 38°
2026-04-28 16:41 23.15845 40.50045 25039 ft 491 kts 38°
2026-04-28 16:41 23.18404 40.52519 25263 ft 493 kts 38°
2026-04-28 16:42 23.20976 40.55007 25462 ft 495 kts 38°
2026-04-28 16:42 23.23543 40.57510 25662 ft 498 kts 39°
2026-04-28 16:42 23.25940 40.60259 25858 ft 503 kts 47°
2026-04-28 16:42 23.27980 40.63370 26051 ft 509 kts 57°
2026-04-28 16:43 23.29595 40.66834 26153 ft 515 kts 65°
2026-04-28 16:43 23.30976 40.70436 26361 ft 517 kts 68°
2026-04-28 16:43 23.32264 40.74095 26552 ft 519 kts 69°
2026-04-28 16:43 23.33513 40.77785 26737 ft 522 kts 69°
2026-04-28 16:44 23.34758 40.81498 26961 ft 524 kts 69°
2026-04-28 16:44 23.36020 40.85237 27134 ft 526 kts 69°
2026-04-28 16:44 23.37274 40.88920 27318 ft 528 kts 68°
2026-04-28 16:44 23.38562 40.92673 27497 ft 530 kts 68°
2026-04-28 16:45 23.39861 40.96439 27737 ft 531 kts 68°
2026-04-28 16:45 23.41167 41.00215 27901 ft 535 kts 68°
2026-04-28 16:45 23.42485 41.04024 28031 ft 538 kts 68°
2026-04-28 16:45 23.43810 41.07855 28240 ft 540 kts 68°
2026-04-28 16:46 23.45134 41.11690 28434 ft 542 kts 68°
2026-04-28 16:46 23.46466 41.15555 28626 ft 544 kts 68°
2026-04-28 16:46 23.47794 41.19411 28832 ft 545 kts 68°
2026-04-28 16:46 23.49129 41.23294 29014 ft 548 kts 68°
2026-04-28 16:47 23.50448 41.27135 29188 ft 550 kts 68°
2026-04-28 16:47 23.51792 41.31050 29365 ft 552 kts 68°
2026-04-28 16:47 23.53137 41.34970 29535 ft 554 kts 68°
2026-04-28 16:47 23.54489 41.38915 29641 ft 557 kts 68°
2026-04-28 16:48 23.55849 41.42888 29831 ft 559 kts 68°
2026-04-28 16:48 23.57215 41.46881 29989 ft 561 kts 68°
2026-04-28 16:48 23.58579 41.50876 30162 ft 563 kts 68°
2026-04-28 16:48 23.59947 41.54886 30348 ft 564 kts 68°
2026-04-28 16:49 23.61313 41.58895 30564 ft 564 kts 68°
2026-04-28 16:49 23.62661 41.62852 30801 ft 564 kts 68°
2026-04-28 16:49 23.64022 41.66853 30966 ft 565 kts 68°
2026-04-28 16:49 23.65404 41.70916 31171 ft 566 kts 68°
2026-04-28 16:50 23.66785 41.74981 31244 ft 570 kts 68°
2026-04-28 16:50 23.68128 41.79020 31392 ft 572 kts 69°
2026-04-28 16:50 23.69447 41.83120 31618 ft 572 kts 69°
2026-04-28 16:50 23.70743 41.87214 31800 ft 573 kts 70°
2026-04-28 16:51 23.72044 41.91346 31949 ft 574 kts 70°
2026-04-28 16:51 23.73341 41.95464 32125 ft 576 kts 70°
2026-04-28 16:51 23.74651 41.99598 32269 ft 576 kts 69°
2026-04-28 16:51 23.76011 42.03716 32477 ft 576 kts 68°
2026-04-28 16:52 23.77410 42.07818 32628 ft 577 kts 68°
2026-04-28 16:52 23.78818 42.11891 32784 ft 579 kts 68°
2026-04-28 16:52 23.80246 42.16018 32907 ft 580 kts 68°
2026-04-28 16:52 23.81674 42.20158 33101 ft 580 kts 68°
2026-04-28 16:53 23.83085 42.24271 33411 ft 577 kts 68°
2026-04-28 16:53 23.84488 42.28383 33650 ft 577 kts 68°
2026-04-28 16:53 23.85885 42.32490 33863 ft 577 kts 68°
2026-04-28 16:53 23.87286 42.36615 34092 ft 576 kts 68°
2026-04-28 16:54 23.88660 42.40670 34309 ft 575 kts 68°
2026-04-28 16:54 23.90046 42.44760 34516 ft 575 kts 68°
2026-04-28 16:54 23.91439 42.48874 34700 ft 576 kts 68°
2026-04-28 16:54 23.92361 42.51599 34848 ft 575 kts 68°
2026-04-28 16:55 23.94210 42.57072 35202 ft 573 kts 69°
2026-04-28 16:55 23.95589 42.61157 35455 ft 572 kts 69°
2026-04-28 16:55 23.96972 42.65257 35755 ft 570 kts 69°
2026-04-28 16:55 23.98338 42.69313 36023 ft 568 kts 69°
2026-04-28 16:56 23.99707 42.73379 36254 ft 568 kts 69°
2026-04-28 16:56 24.01052 42.77378 36494 ft 567 kts 69°
2026-04-28 16:56 24.02416 42.81434 36659 ft 569 kts 69°
2026-04-28 16:56 24.03775 42.85485 36855 ft 569 kts 69°
2026-04-28 16:57 24.05138 42.89553 37121 ft 567 kts 69°
2026-04-28 16:57 24.06486 42.93617 37376 ft 567 kts 69°
2026-04-28 16:57 24.07819 42.97662 37611 ft 566 kts 69°
2026-04-28 16:57 24.09150 43.01715 37874 ft 565 kts 69°
2026-04-28 16:58 24.10479 43.05768 38150 ft 564 kts 69°
2026-04-28 16:58 24.11799 43.09793 38406 ft 562 kts 69°
2026-04-28 16:58 24.13121 43.13825 38597 ft 564 kts 69°
2026-04-28 16:58 24.14447 43.17871 38700 ft 565 kts 69°
2026-04-28 16:59 24.15775 43.21928 38862 ft 565 kts 70°
2026-04-28 16:59 24.18428 43.30040 38917 ft 563 kts 70°
2026-04-28 17:00 24.21047 43.38066 38925 ft 563 kts 70°
2026-04-28 17:00 24.23683 43.46157 38931 ft 563 kts 70°
2026-04-28 17:01 24.26319 43.54267 38921 ft 563 kts 70°
2026-04-28 17:01 24.28945 43.62364 38915 ft 564 kts 70°
2026-04-28 17:02 24.31114 43.69063 38913 ft 563 kts 70°
2026-04-28 17:02 24.33730 43.77159 38918 ft 563 kts 70°
2026-04-28 17:03 24.37650 43.89317 38915 ft 563 kts 70°
2026-04-28 17:03 24.40260 43.97437 38909 ft 563 kts 70°
2026-04-28 17:04 24.44134 44.09534 38939 ft 562 kts 71°
2026-04-28 17:05 24.45961 44.17855 38773 ft 558 kts 79°
2026-04-28 17:05 24.46713 44.22004 38492 ft 550 kts 79°
2026-04-28 17:05 24.47431 44.26139 37680 ft 553 kts 79°
2026-04-28 17:06 24.48847 44.34466 36207 ft 556 kts 79°
2026-04-28 17:06 24.49560 44.38653 35488 ft 558 kts 79°
2026-04-28 17:06 24.51006 44.47087 33919 ft 564 kts 79°
2026-04-28 17:07 24.51738 44.51338 32956 ft 569 kts 79°
2026-04-28 17:07 24.52478 44.55624 32084 ft 573 kts 79°
2026-04-28 17:07 24.53220 44.59936 31147 ft 576 kts 80°
2026-04-28 17:07 24.53966 44.64287 30232 ft 580 kts 80°
2026-04-28 17:08 24.54702 44.68584 29552 ft 576 kts 80°
2026-04-28 17:08 24.55437 44.72881 28904 ft 571 kts 81°
2026-04-28 17:08 24.56165 44.77148 28258 ft 565 kts 81°
2026-04-28 17:08 24.56886 44.81382 27626 ft 560 kts 81°
2026-04-28 17:09 24.57599 44.85576 26995 ft 555 kts 81°
2026-04-28 17:09 24.58303 44.89725 26362 ft 550 kts 81°
2026-04-28 17:09 24.59000 44.93839 25745 ft 546 kts 81°
2026-04-28 17:09 24.59689 44.97917 25137 ft 541 kts 81°
2026-04-28 17:10 24.60372 45.01971 24508 ft 536 kts 82°
2026-04-28 17:10 24.61048 45.05987 23919 ft 531 kts 82°
2026-04-28 17:10 24.61717 45.09966 23266 ft 527 kts 82°
2026-04-28 17:10 24.62377 45.13901 22669 ft 518 kts 82°
2026-04-28 17:11 24.63015 45.17720 22039 ft 512 kts 82°
2026-04-28 17:11 24.63658 45.21567 21397 ft 506 kts 81°
2026-04-28 17:11 24.64288 45.25347 20786 ft 500 kts 81°
2026-04-28 17:11 24.64910 45.29078 20192 ft 493 kts 81°
2026-04-28 17:12 24.65523 45.32766 19619 ft 486 kts 81°
2026-04-28 17:12 24.66128 45.36408 19038 ft 480 kts 81°
2026-04-28 17:12 24.66723 45.39993 18509 ft 472 kts 81°
2026-04-28 17:12 24.67303 45.43494 17864 ft 468 kts 81°
2026-04-28 17:13 24.67881 45.46992 17297 ft 460 kts 81°
2026-04-28 17:13 24.68444 45.50394 17143 ft 442 kts 81°
2026-04-28 17:13 24.68984 45.53667 17001 ft 426 kts 81°
2026-04-28 17:13 24.69504 45.56820 16821 ft 412 kts 81°
2026-04-28 17:14 24.70007 45.59876 16628 ft 399 kts 81°
2026-04-28 17:14 24.70330 45.61843 16528 ft 390 kts 81°
2026-04-28 17:14 24.70963 45.65703 16224 ft 376 kts 81°
2026-04-28 17:14 24.71228 45.67562 16071 ft 369 kts 85°
2026-04-28 17:15 24.71430 45.71224 15729 ft 357 kts 90°
2026-04-28 17:15 24.71510 45.73941 15303 ft 354 kts 90°
2026-04-28 17:15 24.71588 45.76636 14878 ft 352 kts 90°
2026-04-28 17:15 24.71669 45.79323 14465 ft 351 kts 91°
2026-04-28 17:16 24.71725 45.81141 14195 ft 349 kts 91°
2026-04-28 17:16 24.71808 45.83799 13797 ft 347 kts 91°
2026-04-28 17:16 24.71889 45.86409 13374 ft 344 kts 91°
2026-04-28 17:16 24.71971 45.89030 12949 ft 342 kts 90°
2026-04-28 17:17 24.72052 45.91631 12540 ft 339 kts 90°
2026-04-28 17:17 24.72134 45.94198 12213 ft 333 kts 90°
2026-04-28 17:17 24.72212 45.96733 11920 ft 329 kts 90°
2026-04-28 17:17 24.72289 45.99249 11735 ft 329 kts 90°
2026-04-28 17:18 24.72366 46.01757 11558 ft 328 kts 90°
2026-04-28 17:18 24.72443 46.04261 11405 ft 328 kts 90°
2026-04-28 17:18 24.72518 46.06765 11204 ft 327 kts 90°
2026-04-28 17:18 24.72594 46.09266 10997 ft 325 kts 90°
2026-04-28 17:19 24.72668 46.11745 10797 ft 324 kts 90°
2026-04-28 17:19 24.72742 46.14223 10592 ft 323 kts 90°
2026-04-28 17:19 24.72818 46.16683 10467 ft 321 kts 90°
2026-04-28 17:19 24.72891 46.19117 10384 ft 323 kts 90°
2026-04-28 17:20 24.72967 46.21580 10285 ft 323 kts 90°
2026-04-28 17:20 24.73017 46.23220 10236 ft 322 kts 90°
2026-04-28 17:20 24.73116 46.26507 10100 ft 322 kts 90°
2026-04-28 17:20 24.73186 46.28971 10004 ft 322 kts 90°
2026-04-28 17:21 24.73257 46.31427 9906 ft 320 kts 90°
2026-04-28 17:21 24.73327 46.33873 9822 ft 320 kts 90°
2026-04-28 17:21 24.73393 46.36313 9726 ft 320 kts 90°
2026-04-28 17:22 24.74015 46.41122 9527 ft 321 kts 65°
2026-04-28 17:22 24.75085 46.43290 9516 ft 321 kts 59°
2026-04-28 17:22 24.76226 46.45401 9513 ft 321 kts 59°
2026-04-28 17:23 24.78493 46.49625 9498 ft 320 kts 59°
2026-04-28 17:23 24.79618 46.51744 9484 ft 320 kts 59°
2026-04-28 17:23 24.80722 46.53838 9468 ft 320 kts 59°
2026-04-28 17:23 24.81838 46.55959 9439 ft 321 kts 60°
2026-04-28 17:24 24.82954 46.58083 9427 ft 318 kts 60°
2026-04-28 17:24 24.83801 46.60307 9372 ft 313 kts 81°
2026-04-28 17:24 24.83679 46.62590 9247 ft 290 kts 113°
2026-04-28 17:24 24.82597 46.64329 9224 ft 271 kts 146°
2026-04-28 17:25 24.80994 46.65374 9225 ft 268 kts 158°
2026-04-28 17:25 24.77659 46.67233 9207 ft 269 kts 157°
2026-04-28 17:25 24.76006 46.68217 9199 ft 269 kts 156°
2026-04-28 17:26 24.74363 46.69221 9174 ft 270 kts 155°
2026-04-28 17:26 24.72740 46.70229 9161 ft 266 kts 155°
2026-04-28 17:26 24.71140 46.71229 9125 ft 265 kts 155°
2026-04-28 17:26 24.69531 46.72237 8817 ft 264 kts 155°
2026-04-28 17:27 24.67956 46.73226 8471 ft 263 kts 155°
2026-04-28 17:27 24.66373 46.74222 8144 ft 262 kts 155°
2026-04-28 17:27 24.64799 46.75211 7803 ft 261 kts 155°
2026-04-28 17:27 24.63223 46.76198 7542 ft 258 kts 155°
2026-04-28 17:28 24.61656 46.77178 7502 ft 260 kts 155°
2026-04-28 17:28 24.58518 46.79140 7507 ft 260 kts 155°
2026-04-28 17:28 24.56946 46.80123 7510 ft 259 kts 155°
2026-04-28 17:29 24.55375 46.81106 7499 ft 258 kts 155°
2026-04-28 17:29 24.53862 46.82059 7493 ft 245 kts 154°
2026-04-28 17:29 24.52392 46.82985 7504 ft 248 kts 154°
2026-04-28 17:30 24.49377 46.84884 7498 ft 250 kts 154°
2026-04-28 17:30 24.46363 46.86782 7495 ft 250 kts 154°
2026-04-28 17:30 24.44856 46.87731 7495 ft 249 kts 154°
2026-04-28 17:31 24.43348 46.88678 7494 ft 250 kts 154°
2026-04-28 17:31 24.40337 46.90569 7489 ft 249 kts 154°
2026-04-28 17:32 24.37335 46.92453 7489 ft 250 kts 154°
2026-04-28 17:32 24.35969 46.93636 7482 ft 255 kts 129°
2026-04-28 17:32 24.35347 46.95447 7489 ft 260 kts 94°
2026-04-28 17:32 24.35757 46.97358 7503 ft 262 kts 63°
2026-04-28 17:33 24.36710 46.99081 7487 ft 265 kts 57°
2026-04-28 17:33 24.37718 47.00780 7486 ft 266 kts 57°
2026-04-28 17:33 24.38960 47.02259 7481 ft 265 kts 32°
2026-04-28 17:33 24.40077 47.02762 7488 ft 261 kts
2026-04-28 17:34 24.42373 47.02282 7494 ft 253 kts 328°
2026-04-28 17:34 24.43874 47.01269 7486 ft 253 kts 323°
2026-04-28 17:34 24.44057 47.01139 7486 ft 253 kts 323°